ELECTRON KICK STAGE R/B

Satellite information

Favourite Embed

Satellite Type and Status

ROCKET BODYIN ORBIT

Key statistics

Satellite ELECTRON KICK STAGE R/B at a glance.

Uptime

440

Days in orbit

Revolutions

≈ 14.5

Per day

Orbit

SSO

Sun Synchronous Orbit

Inclination

97.3

Latest

Satellite identification and parameters

Extended collection of information and parameters for ELECTRON KICK STAGE R/B.

Object identification

Identified? True

Debris? False

Object name: ELECTRON KICK STAGE R/B

International designator: 2024-077D

Object number (NORAD): 59590

Object ID (CCSDS): 59590

Country: UNITED STATES OF AMERICA (US)

Current information (Y/N): Y

RCS size: MEDIUM

Orbital parameters

Period: 99.003 minutes

Inclination: 97.3405 deg

SMA: 7089.124 km

Apoapsis: 964.022 km

Periapsis: 457.957 km

RAAN: 221.6232 deg

Eccentricy: 0.0356931

Argument of periapsis: 263.7175 deg

Mean anomaly: 92.3265 deg

Mean motion: 14.5450047 rev/day

Mean motion (dot): 0.00001752 rev/day2

B* drag term: 0.00017944 1/REarth

Two-line elements (TLE)

Creation date: July 6, 2025, 10:16 p.m.

Reference frame: TEME

Reference center: EARTH

Epoch: July 6, 2025, 8:30 p.m. UTC

TLE line 0: 0 ELECTRON KICK STAGE R/B

TLE line 1: 1 59590U 24077D 25187.85423493 .00001752 00000-0 17944-3 0 9992

TLE line 2: 2 59590 97.3405 221.6232 0356931 263.7175 92.3265 14.54500470 63639

Live tracking on map

Real-time ground track for satellite ELECTRON KICK STAGE R/B.

In-orbit conjunctions

A list of the most updated potential collisions computed for object ELECTRON KICK STAGE R/B.

Target Orbit TCA Probability of collision Miss distance Type
DELTA 1 R/B SSO 2025-06-26 18:41:31 0.0001498504 70.0 (m) ROCKET BODY
COSMOS 1275 DEB LEO 2024-11-15 14:51:47 0.0003474464 593.0 (m) DEBRIS
COSMOS 1275 DEB LEO 2024-09-10 18:08:10 0.0001738143 385.0 (m) DEBRIS

Associated space launch

NASA's Advanced Composite Solar Sail System (ACS3) is a technology demonstration mission tasked with deploying a composite boom solar sail. NeonSat-1 is a high-resolution optical satellite by South Korea's KAIST that will be deployed as a technology demonstration for a planned future Earth observation constellation.

ELECTRON KICK STAGE R/B was lifted into orbit during the mission ‘Electron | Beginning Of The Swarm (ACS3 & NeonSat-1)’, on board a Electron space rocket.

The launch took place on April 23, 2024, 10:32 p.m. from Rocket Lab Launch Complex 1B.

For more information about the launch, click the button.

Launch to space Electron | Beginning Of The Swarm (ACS3 & NeonSat-1)
Electron | Beginning Of The Swarm (ACS3 & NeonSat-1)

Agency: Korea Advanced Institute of Science and Technology

Status: Launch Successful

Launch date: April 23, 2024, 10:32 p.m. UTC

Rocket: Electron

Launch pad: Rocket Lab Launch Complex 1B

Location: Rocket Lab Launch Complex 1, Mahia Peninsula, New Zealand

...

Latest news about this satellite

News about space launch
Like a Diamond in the Sky: How to Spot NASA’s Solar Sail Demo in Orbit

Now that its reflective sail has deployed fully open in orbit, the Advanced Composite Solar Sail System can be seen in the night sky from many locations across the world! Stargazers can join NASA’s #SpotTheSail campaign by using the NASA ap...

News about space launch
Rocket Lab successfully launches the ‘Beginning of the Swarm’ mission

Rocket Lab successfully launched the “Beginning of the Swarm” mission, its 47th overall yesterday. Electron took the skies at 10:32 am NZT...

News about space launch
Electron launches South Korean imaging satellite and NASA solar sail

Rocket Lab launched a South Korean smallsat and a NASA solar sail experiment on the company’s fifth flight of the year April 23.


Newsletter sign-up

Weekly statistics, charts and insights to help you stay on top of the space industry.